Location: Cadeilhan
(42.8161°N, 0.3161°E)
Time: 16:56:25
(UTC+00:00)

SL-16 R/B - Pass Details

Date: 18 February 2020
Orbit: 843 x 847 km, 71.0° (Epoch: 07 April)

Event Time Altitude Azimuth Distance (km) Brightness Sun altitude
Exits shadow 04:29:02 58° 337° (NNW) 986 2.4 -26.9°
Drops below altitude 10° 04:33:54 10° 19° (NNE) 2,474 4.9 -26.1°
Sets 04:36:23 0° 23° (NNE) 3,412 5.8 -25.6°
